Location: Ostrava
(49.8330°N, 18.2830°E)
Time: 13:24:32
(UTC+02:00)

Iridium 7 - Visible Passes

Search period start: 27 June 2016 00:00
Search period end: 07 July 2016 00:00
Orbit: 776 x 779 km, 86.4° (Epoch: 26 June)

Date Brightness Start Highest point End Pass type
(mag) Time Alt. Az. Time Alt. Az. Time Alt. Az.
27 Jun 7.0 00:06:13 10° NNE 00:10:37 27° ENE 00:14:02 14° ESE visible
27 Jun 6.0 01:46:35 10° NNW 01:51:35 48° W 01:54:29 23° SSW visible
27 Jun 7.6 23:33:26 10° NNE 23:36:43 16° ENE 23:39:58 10° ESE visible
28 Jun 5.5 01:12:53 10° N 01:18:08 81° W 01:20:58 28° S visible
28 Jun 7.7 02:55:47 10° NW 02:57:58 13° WNW 03:00:09 10° W visible
29 Jun 5.8 00:39:22 10° N 00:44:34 60° E 00:47:27 26° SSE visible
29 Jun 7.2 02:20:59 10° NNW 02:24:50 21° WNW 02:27:55 13° WSW visible
30 Jun 6.6 00:06:04 10° N 00:10:53 36° ENE 00:13:57 19° SE visible
30 Jun 6.5 01:46:52 10° NNW 01:51:35 35° W 01:54:24 20° SW visible
30 Jun 7.2 23:33:00 10° NNE 23:37:03 22° ENE 23:40:26 12° ESE visible
01 Jul 5.8 01:13:03 10° N 01:18:12 59° W 01:20:54 27° SSW visible
01 Jul 7.7 23:00:32 10° NE 23:03:05 13° ENE 23:05:38 10° E visible
02 Jul 5.5 00:39:26 10° N 00:44:42 83° E 00:47:24 30° S visible
02 Jul 7.6 02:21:41 10° NW 02:24:43 16° WNW 02:27:43 10° WSW visible
03 Jul 6.1 00:06:00 10° N 00:11:05 49° E 00:13:55 25° SE visible
03 Jul 7.0 01:47:17 10° NNW 01:51:32 26° W 01:54:23 16° WSW visible
03 Jul 6.8 23:32:46 10° NNE 23:37:20 29° ENE 23:40:25 17° SE visible
04 Jul 6.2 01:13:18 10° NNW 01:18:13 43° W 01:20:53 24° SW visible
04 Jul 7.4 22:59:52 10° NNE 23:03:27 18° ENE 23:06:57 10° ESE visible
05 Jul 5.6 00:39:34 10° N 00:44:47 73° W 00:47:24 30° S visible
05 Jul 7.8 02:23:00 10° NW 02:24:32 11° WNW 02:26:04 10° W visible
05 Jul 7.8 22:28:04 10° NE 22:29:26 11° ENE 22:30:48 10° ENE visible
06 Jul 5.6 00:06:01 10° N 00:11:15 67° E 00:13:56 29° SSE visible
06 Jul 7.4 01:47:49 10° NNW 01:51:25 19° WNW 01:54:24 12° WSW visible
06 Jul 6.3 23:32:39 10° N 23:37:34 40° ENE 23:40:28 22° SE visible
